Location: Goll?ig?dem
(16.6773°N, 80.7332°E)
Time: 21:52:52
(UTC+00:00)

Cosmos 2082 - Pass Details

Date: 19 May 2025
Orbit: 831 x 855 km, 71.0° (Epoch: 18 June)

Event Time Altitude Azimuth Distance (km) Brightness Sun altitude
Exits shadow 21:42:09 52° 359° (N) 1,038 4.2 -31.0°
Drops below altitude 10° 21:46:24 10° 13° (NNE) 2,462 6.7 -30.1°
Sets 21:48:52 0° 15° (NNE) 3,402 7.5 -29.7°
